EW6167 Weather Reports


time (UTC)temp
C
wind
direction
speed
KPH
gust
KPH
rain 1hr
cm
rain 24hr
cm
rain mn
cm
humidity
%
barometer
mb
20260506233019 17 290 12.9 0.0 0.00 0.00 0.00 29 1013.9
20260506232531 16 267 16.1 0.0 0.00 0.00 0.00 28 1013.9
20260506232044 16 269 14.5 0.0 0.00 0.00 0.00 29 1014.1
20260506231602 16 295 11.3 0.0 0.00 0.00 0.00 29 1014.1
20260506231008 16 263 9.7 0.0 0.00 0.00 0.00 31 1014.3
20260506230517 16 355 11.3 0.0 0.00 0.00 0.00 31 1014.3
20260506230037 15 12 12.9 0.0 0.00 0.00 0.00 31 1014.3
20260506225551 15 319 12.9 0.0 0.00 0.00 0.00 31 1014.3
20260506225003 15 331 12.9 0.0 0.00 0.00 0.00 31 1014.4
20260506224520 15 290 9.7 0.0 0.00 0.00 0.00 30 1014.5
20260506224039 15 290 9.7 0.0 0.00 0.00 0.00 30 1014.5
20260506223555 15 292 11.3 0.0 0.00 0.00 0.00 31 1014.5
20260506223110 15 296 14.5 0.0 0.00 0.00 0.00 30 1014.7
20260506222515 15 255 16.1 0.0 0.00 0.00 0.00 29 1014.7
20260506222034 16 288 16.1 0.0 0.00 0.00 0.00 29 1014.7
20260506221546 15 279 16.1 0.0 0.00 0.00 0.00 30 1014.9
20260506221101 15 315 19.3 0.0 0.00 0.00 0.00 30 1015.1
20260506220516 15 284 22.5 0.0 0.00 0.00 0.00 29 1015.2
20260506220038 15 360 16.1 0.0 0.00 0.00 0.00 30 1015.3
20260506215548 15 324 12.9 0.0 0.00 0.00 0.00 30 1015.3
20260506215058 15 311 14.5 0.0 0.00 0.00 0.00 30 1015.4
20260506214510 15 325 17.7 0.0 0.00 0.00 0.00 29 1015.5
20260506214025 15 286 19.3 0.0 0.00 0.00 0.00 29 1015.6
20260506213543 15 277 20.9 0.0 0.00 0.00 0.00 30 1015.7
20260506213056 15 281 20.9 0.0 0.00 0.00 0.00 30 1015.6
20260506212507 15 340 20.9 0.0 0.00 0.00 0.00 31 1015.6
20260506212026 15 314 22.5 0.0 0.00 0.00 0.00 30 1015.6
20260506211541 15 314 20.9 0.0 0.00 0.00 0.00 29 1015.7
20260506211059 15 336 22.5 0.0 0.00 0.00 0.00 30 1015.8
20260506210513 15 281 24.1 0.0 0.00 0.00 0.00 30 1016.0
20260506210027 15 327 22.5 0.0 0.00 0.00 0.00 30 1016.1
20260506205542 15 334 22.5 0.0 0.00 0.00 0.00 30 1016.2
20260506205101 14 327 19.3 0.0 0.00 0.00 0.00 30 1016.2
20260506204516 14 331 12.9 0.0 0.00 0.00 0.00 32 1016.2
20260506204032 14 25 11.3 0.0 0.00 0.00 0.00 32 1016.4
20260506203548 14 26 8.0 0.0 0.00 0.00 0.00 33 1016.5
20260506203059 13 69 8.0 0.0 0.00 0.00 0.00 33 1016.6
20260506202510 13 74 9.7 0.0 0.00 0.00 0.00 33 1016.7
20260506202026 13 51 6.4 0.0 0.00 0.00 0.00 32 1016.7
20260506201542 13 23 6.4 0.0 0.00 0.00 0.00 31 1016.6
20260506201057 13 360 6.4 0.0 0.00 0.00 0.00 32 1016.6
20260506200510 13 171 6.4 0.0 0.00 0.00 0.00 32 1016.8
20260506200027 12 318 8.0 0.0 0.00 0.00 0.00 32 1016.8
20260506195539 12 300 8.0 0.0 0.00 0.00 0.00 31 1016.8
20260506195057 12 260 6.4 0.0 0.00 0.00 0.00 31 1016.9
20260506194507 12 44 6.4 0.0 0.00 0.00 0.00 32 1017.1
20260506194022 12 297 6.4 0.0 0.00 0.00 0.00 32 1017.2
20260506193538 12 305 6.4 0.0 0.00 0.00 0.00 32 1017.2
20260506193055 12 57 8.0 0.0 0.00 0.00 0.00 33 1017.3
20260506192501 12 87 8.0 0.0 0.00 0.00 0.00 33 1017.4
20260506192019 12 320 9.7 0.0 0.00 0.00 0.00 32 1017.4
20260506191545 12 15 8.0 0.0 0.00 0.00 0.00 32 1017.6
20260506191107 12 50 6.4 0.0 0.00 0.00 0.00 33 1017.5
20260506190521 12 265 6.4 0.0 0.00 0.00 0.00 31 1017.7
20260506190034 11 84 8.0 0.0 0.00 0.00 0.00 32 1017.8
20260506185550 11 34 8.0 0.0 0.00 0.00 0.00 32 1017.9
20260506185104 11 42 8.0 0.0 0.00 0.00 0.00 31 1017.9
20260506184518 11 45 6.4 0.0 0.00 0.00 0.00 32 1018.2
20260506184032 11 117 6.4 0.0 0.00 0.00 0.00 32 1018.3
20260506183548 11 70 6.4 0.0 0.00 0.00 0.00 32 1018.3
20260506183125 11 124 4.8 0.0 0.00 0.00 0.00 33 1018.4
20260506182512 10 64 4.8 0.0 0.00 0.00 0.00 34 1018.5
20260506182026 10 324 6.4 0.0 0.00 0.00 0.00 32 1018.4
20260506181549 10 340 6.4 0.0 0.00 0.00 0.00 31 1018.6
20260506181100 10 18 6.4 0.0 0.00 0.00 0.00 32 1018.6
20260506180510 10 9 6.4 0.0 0.00 0.00 0.00 31 1018.7
20260506180026 10 52 4.8 0.0 0.00 0.00 0.00 31 1018.8
20260506175542 10 55 4.8 0.0 0.00 0.00 0.00 31 1018.8
20260506175103 9 79 4.8 0.0 0.00 0.00 0.00 31 1018.9
20260506174511 9 52 4.8 0.0 0.00 0.00 0.00 31 1018.9
20260506174028 9 111 4.8 0.0 0.00 0.00 0.00 31 1019.0
20260506173549 8 55 4.8 0.0 0.00 0.00 0.00 29 1019.0
20260506173140 8 94 4.8 0.0 0.00 0.00 0.00 29 1019.0
20260506172514 8 84 4.8 0.0 0.00 0.00 0.00 30 1018.9
20260506172028 8 101 4.8 0.0 0.00 0.00 0.00 30 1019.0
20260506171547 8 91 6.4 0.0 0.00 0.00 0.00 31 1019.1
20260506171004 8 70 6.4 0.0 0.00 0.00 0.00 29 1019.2
20260506170523 7 89 4.8 0.0 0.00 0.00 0.00 28 1019.3
20260506170034 7 285 6.4 0.0 0.00 0.00 0.00 28 1019.1
20260506165548 7 131 6.4 0.0 0.00 0.00 0.00 28 1019.1
20260506165107 7 148 8.0 0.0 0.00 0.00 0.00 31 1019.3
20260506164519 7 90 8.0 0.0 0.00 0.00 0.00 32 1019.3
20260506164033 7 80 8.0 0.0 0.00 0.00 0.00 33 1019.4
20260506163552 7 88 8.0 0.0 0.00 0.00 0.00 34 1019.5
20260506163007 6 198 8.0 0.0 0.00 0.00 0.00 35 1019.4
20260506162523 6 105 9.7 0.0 0.00 0.00 0.00 37 1019.5
20260506162043 6 168 9.7 0.0 0.00 0.00 0.00 41 1019.6
20260506161602 5 186 9.7 0.0 0.00 0.00 0.00 41 1019.6
20260506161016 5 206 9.7 0.0 0.00 0.00 0.00 41 1019.8
20260506160531 5 137 9.7 0.0 0.00 0.00 0.00 41 1019.8
20260506160050 5 180 11.3 0.0 0.00 0.00 0.00 41 1019.8
20260506155502 4 209 11.3 0.0 0.00 0.00 0.00 42 1019.8
20260506155021 4 171 11.3 0.0 0.00 0.00 0.00 43 1019.9
20260506154536 3 187 11.3 0.0 0.00 0.00 0.00 43 1019.9
20260506154056 3 179 12.9 0.0 0.00 0.00 0.00 43 1019.9
20260506153505 3 187 12.9 0.0 0.00 0.00 0.00 43 1019.9
20260506153023 3 211 12.9 0.0 0.00 0.00 0.00 46 1020.0
20260506152539 3 184 14.5 0.0 0.00 0.00 0.00 46 1020.0
20260506152055 3 200 14.5 0.0 0.00 0.00 0.00 45 1020.1
20260506151507 3 194 14.5 0.0 0.00 0.00 0.00 46 1020.2
20260506151025 2 173 16.1 0.0 0.00 0.00 0.00 48 1020.2
20260506150540 2 175 16.1 0.0 0.00 0.00 0.00 50 1020.2
20260506150058 2 155 16.1 0.0 0.00 0.00 0.00 53 1020.2
20260506145505 2 163 16.1 0.0 0.00 0.00 0.00 54 1020.2
20260506145022 2 198 16.1 0.0 0.00 0.00 0.00 56 1020.3
20260506144549 1 170 14.5 0.0 0.00 0.00 0.00 57 1020.4
20260506144054 1 201 14.5 0.0 0.00 0.00 0.00 59 1020.5
20260506143505 1 195 14.5 0.0 0.00 0.00 0.00 63 1020.6
20260506143027 0 173 16.1 0.0 0.00 0.00 0.00 63 1020.6
20260506142541 0 150 17.7 0.0 0.00 0.00 0.00 62 1020.6
20260506142059 0 175 17.7 0.0 0.00 0.00 0.00 62 1020.6
20260506141515 0 164 16.1 0.0 0.00 0.00 0.00 63 1020.6
20260506141034 0 144 14.5 0.0 0.00 0.00 0.00 64 1020.6
20260506140552 0 144 14.5 0.0 0.00 0.00 0.00 67 1020.7
20260506140105 0 155 14.5 0.0 0.00 0.00 0.00 68 1020.7
20260506135516 0 154 14.5 0.0 0.00 0.00 0.00 68 1020.5
20260506135032 0 147 14.5 0.0 0.00 0.00 0.00 69 1020.5
20260506134554 0 169 14.5 0.0 0.00 0.00 0.00 76 1020.5
20260506134106 -1 154 14.5 0.0 0.00 0.00 0.00 75 1020.5
20260506133515 -2 178 12.9 0.0 0.00 0.00 0.00 75 1020.3
20260506133030 -2 171 11.3 0.0 0.00 0.00 0.00 76 1020.3
20260506132545 -2 170 9.7 0.0 0.00 0.00 0.00 78 1020.3
20260506132100 -2 188 9.7 0.0 0.00 0.00 0.00 79 1020.3
20260506131513 -3 200 9.7 0.0 0.00 0.00 0.00 80 1020.3
20260506131030 -3 194 11.3 0.0 0.00 0.00 0.00 81 1020.0
20260506130549 -3 195 11.3 0.0 0.00 0.00 0.00 82 1020.0
20260506130003 -5 212 9.7 0.0 0.00 0.00 0.00 83 1020.2
20260506125518 -5 209 9.7 0.0 0.00 0.00 0.00 83 1020.1
20260506125037 -6 198 9.7 0.0 0.00 0.00 0.00 83 1019.9
20260506124553 -6 200 9.7 0.0 0.00 0.00 0.00 83 1019.9
20260506124010 -6 198 9.7 0.0 0.00 0.00 0.00 83 1020.0
20260506123530 -6 195 8.0 0.0 0.00 0.00 0.00 82 1019.9
20260506123048 -6 194 8.0 0.0 0.00 0.00 0.00 82 1020.1
20260506122504 -6 184 8.0 0.0 0.00 0.00 0.00 82 1019.9
20260506122021 -6 180 8.0 0.0 0.00 0.00 0.00 83 1019.9
20260506121539 -6 181 9.7 0.0 0.00 0.00 0.00 83 1019.9
20260506121059 -6 182 9.7 0.0 0.00 0.00 0.00 83 1019.7
20260506120511 -6 190 9.7 0.0 0.00 0.00 0.00 83 1019.8
20260506120033 -6 193 8.0 0.0 0.00 0.00 0.00 83 1019.8
20260506115553 -6 196 8.0 0.0 0.00 0.00 0.00 82 1019.8
20260506115008 -6 192 8.0 0.0 0.00 0.00 0.00 83 1019.7
20260506114531 -7 196 8.0 0.0 0.00 0.00 0.00 83 1019.8
20260506114053 -7 189 6.4 0.0 0.00 0.00 0.00 82 1019.7
20260506113507 -7 189 6.4 0.0 0.00 0.00 0.00 83 1019.9
20260506113025 -7 189 8.0 0.0 0.00 0.00 0.00 83 1019.8
20260506112548 -6 189 9.7 0.0 0.00 0.00 0.00 84 1019.8
20260506112006 -7 190 9.7 0.0 0.00 0.00 0.00 83 1019.8
20260506111524 -7 198 9.7 0.0 0.00 0.00 0.00 83 1019.7
20260506111046 -7 203 9.7 0.0 0.00 0.00 0.00 83 1019.7
20260506110503 -7 191 8.0 0.0 0.00 0.00 0.00 83 1019.8
20260506110021 -7 184 8.0 0.0 0.00 0.00 0.00 81 1019.8
20260506105542 -7 184 8.0 0.0 0.00 0.00 0.00 81 1019.8
20260506105103 -7 184 8.0 0.0 0.00 0.00 0.00 82 1019.7
20260506104517 -7 181 8.0 0.0 0.00 0.00 0.00 83 1019.7
20260506104034 -7 187 8.0 0.0 0.00 0.00 0.00 83 1019.7
20260506103554 -7 187 8.0 0.0 0.00 0.00 0.00 84 1019.6
20260506103008 -8 184 6.4 0.0 0.00 0.00 0.00 82 1019.6
20260506102528 -8 184 6.4 0.0 0.00 0.00 0.00 81 1019.6
20260506102045 -7 184 8.0 0.0 0.00 0.00 0.00 80 1019.6
20260506101503 -7 184 8.0 0.0 0.00 0.00 0.00 80 1019.6
20260506101020 -7 193 8.0 0.0 0.00 0.00 0.00 82 1019.4
20260506100542 -7 194 8.0 0.0 0.00 0.00 0.00 83 1019.5
20260506100107 -7 192 8.0 0.0 0.00 0.00 0.00 83 1019.4
20260506095518 -7 190 8.0 0.0 0.00 0.00 0.00 81 1019.4
20260506095042 -7 190 8.0 0.0 0.00 0.00 0.00 82 1019.4
20260506094615 -7 189 8.0 0.0 0.00 0.00 0.00 83 1019.3
20260506094016 -7 190 6.4 0.0 0.00 0.00 0.00 81 1019.5
20260506093539 -7 190 6.4 0.0 0.00 0.00 0.00 80 1019.3
20260506093054 -7 192 6.4 0.0 0.00 0.00 0.00 80 1019.4
20260506092505 -6 192 6.4 0.0 0.00 0.00 0.00 80 1019.4
20260506092023 -6 192 6.4 0.0 0.00 0.00 0.00 79 1019.5
20260506091543 -6 192 6.4 0.0 0.00 0.00 0.00 79 1019.6
20260506091100 -6 192 6.4 0.0 0.00 0.00 0.00 80 1019.5
20260506090511 -6 195 8.0 0.0 0.00 0.00 0.00 79 1019.5
20260506090030 -6 200 8.0 0.0 0.00 0.00 0.00 79 1019.5
20260506085547 -6 199 8.0 0.0 0.00 0.00 0.00 79 1019.3
20260506085003 -6 183 8.0 0.0 0.00 0.00 0.00 80 1019.4
20260506084532 -6 183 8.0 0.0 0.00 0.00 0.00 77 1019.3
20260506084044 -6 183 8.0 0.0 0.00 0.00 0.00 75 1019.3
20260506083604 -5 183 8.0 0.0 0.00 0.00 0.00 77 1019.3
20260506083024 -5 184 8.0 0.0 0.00 0.00 0.00 76 1019.2
20260506082541 -5 183 8.0 0.0 0.00 0.00 0.00 76 1019.2
20260506082059 -5 190 8.0 0.0 0.00 0.00 0.00 73 1019.2
20260506081516 -4 190 6.4 0.0 0.00 0.00 0.00 72 1019.2
20260506081033 -3 180 4.8 0.0 0.00 0.00 0.00 72 1019.3
20260506080551 -3 43 4.8 0.0 0.00 0.00 0.00 71 1019.1
20260506073108 -3 43 4.8 0.0 0.00 0.00 0.00 71 1019.1
20260506072522 -3 43 4.8 0.0 0.00 0.00 0.00 70 1019.0
20260506072038 -2 43 4.8 0.0 0.00 0.00 0.00 70 1019.0
20260506071601 -2 43 6.4 0.0 0.00 0.00 0.00 71 1019.1
20260506071010 -3 43 6.4 0.0 0.00 0.00 0.00 72 1019.0
20260506070529 -3 43 4.8 0.0 0.00 0.00 0.00 72 1019.0
20260506062004 -3 39 6.4 0.0 0.00 0.00 0.00 72 1018.6
20260506061527 -2 37 6.4 0.0 0.00 0.00 0.00 70 1018.5
20260506061042 -2 37 8.0 0.0 0.00 0.00 0.00 70 1018.4
20260506060601 -2 39 8.0 0.0 0.00 0.00 0.00 68 1018.3
20260506051010 0 323 19.3 0.0 0.00 0.00 0.00 62 1017.4
20260506050537 0 322 17.7 0.0 0.00 0.00 0.00 62 1017.3
20260506045036 0 321 19.3 0.0 0.00 0.00 0.00 64 1017.4
20260506044603 0 315 20.9 0.0 0.00 0.00 0.00 64 1017.4
20260506044017 0 325 20.9 0.0 0.00 0.00 0.00 64 1017.4
20260506043537 0 319 20.9 0.0 0.00 0.00 0.00 64 1017.4
20260506043059 1 315 22.5 0.0 0.00 0.00 0.00 64 1017.4
20260506042509 1 323 24.1 0.0 0.00 0.00 0.00 64 1017.4
20260506042035 1 304 24.1 0.0 0.00 0.00 0.00 64 1017.4
20260506041556 1 328 24.1 0.0 0.00 0.00 0.00 65 1017.4
20260506041007 1 305 25.7 0.0 0.00 0.00 0.00 65 1017.1
20260506040527 1 313 27.4 0.0 0.00 0.00 0.00 66 1017.2
20260506040042 1 322 25.7 0.0 0.00 0.00 0.00 66 1017.1
20260506035502 1 317 24.1 0.0 0.00 0.00 0.00 67 1017.1
20260506035027 1 326 25.7 0.0 0.00 0.00 0.00 67 1017.2
20260506034551 1 312 27.4 0.0 0.00 0.00 0.00 67 1017.0
20260506034003 1 316 29.0 0.0 0.00 0.00 0.00 67 1016.9
20260506033521 1 317 30.6 0.0 0.00 0.00 0.00 67 1016.8
20260506033042 1 329 32.2 0.0 0.00 0.00 0.00 68 1016.7
20260506032502 1 319 33.8 0.0 0.00 0.00 0.00 66 1016.6
20260506032022 1 320 35.4 0.0 0.00 0.00 0.00 65 1016.5
20260506031540 1 328 33.8 0.0 0.00 0.00 0.00 66 1016.4
20260506031102 1 327 32.2 0.0 0.00 0.00 0.00 67 1016.3
20260506030518 1 320 29.0 0.0 0.00 0.00 0.00 67 1016.2
20260506030035 1 302 30.6 0.0 0.00 0.00 0.00 67 1016.0
20260506025554 1 311 30.6 0.0 0.00 0.00 0.00 68 1016.0
20260506025008 1 298 32.2 0.0 0.00 0.00 0.00 67 1015.7
20260506024527 1 317 32.2 0.0 0.00 0.00 0.00 67 1015.4
20260506024046 1 327 30.6 0.0 0.00 0.00 0.00 67 1015.4
20260506023507 1 328 33.8 0.0 0.00 0.00 0.00 65 1015.3
20260506023026 1 325 32.2 0.0 0.00 0.00 0.00 65 1015.3
20260506022544 1 339 33.8 0.0 0.00 0.00 0.00 66 1015.0
20260506022006 2 338 35.4 0.0 0.00 0.00 0.00 66 1014.8
20260506021526 2 331 33.8 0.0 0.00 0.00 0.00 63 1014.7
20260506021043 2 338 33.8 0.0 0.00 0.00 0.00 62 1014.7
20260506020601 2 334 37.0 0.0 0.00 0.00 0.00 61 1014.5
20260506020013 2 323 40.2 0.0 0.00 0.00 0.00 60 1014.4
20260506015536 2 328 40.2 0.0 0.00 0.00 0.00 59 1014.3
20260506015054 2 329 40.2 0.0 0.00 0.00 0.00 59 1014.3
20260506014507 2 323 38.6 0.0 0.00 0.00 0.00 58 1014.1
20260506014031 2 323 38.6 0.0 0.00 0.00 0.00 57 1013.8
20260506013550 3 325 38.6 0.0 0.00 0.00 0.00 57 1013.8
20260506013002 3 302 38.6 0.0 0.00 0.00 0.00 55 1013.9
20260506012519 3 331 38.6 0.0 0.00 0.00 0.00 52 1013.8
20260506012036 3 331 37.0 0.0 0.00 0.00 0.00 51 1013.7
20260506011620 3 329 35.4 0.0 0.00 0.00 0.00 51 1013.7
20260506011005 3 325 35.4 0.0 0.00 0.00 0.00 49 1013.7
20260506010524 3 314 33.8 0.0 0.00 0.00 0.00 48 1013.6
20260506010043 4 320 32.2 0.0 0.00 0.00 0.00 48 1013.4
20260506005503 3 321 32.2 0.0 0.00 0.00 0.00 51 1013.6
20260506005020 3 311 35.4 0.0 0.00 0.00 0.00 52 1013.2
20260506004543 4 336 37.0 0.0 0.00 0.00 0.00 49 1012.9
20260506004054 4 312 37.0 0.0 0.00 0.00 0.00 49 1012.8
20260506003505 4 314 37.0 0.0 0.00 0.00 0.00 47 1012.7
20260506003022 5 332 35.4 0.0 0.00 0.00 0.00 47 1012.7
20260506002540 5 336 33.8 0.0 0.00 0.00 0.00 47 1012.4
20260506002105 5 323 35.4 0.0 0.00 0.00 0.00 48 1012.6
20260506001518 5 318 38.6 0.0 0.00 0.00 0.00 49 1012.4
20260506001041 5 321 38.6 0.0 0.00 0.00 0.00 48 1012.4
20260506000600 5 316 37.0 0.0 0.00 0.00 0.00 48 1012.3
20260506000010 5 331 37.0 0.0 0.00 0.00 0.00 47 1012.2
20260505235526 5 304 37.0 0.0 0.00 0.00 0.00 47 1012.2
20260505235055 5 325 37.0 0.0 0.00 0.00 0.00 47 1012.2
20260505234514 5 331 35.4 0.0 0.00 0.00 0.00 44 1012.1
20260505234038 5 300 33.8 0.0 0.00 0.00 0.00 47 1012.2
20260505233555 5 323 33.8 0.0 0.00 0.00 0.00 46 1012.2